{"data":{"norad_id":53162,"intl_designator":"2022-083AG","name":"STARLINK-4114","alt_names":[],"object_type":"PAYLOAD","status":"ACTIVE","operator":null,"country":"US","launch_date":"2022-07-17","launch_site_code":"AFETR","launch_vehicle":null,"mission":null,"orbit_class":"UNKNOWN","rcs_meters":null,"size_class":null,"mass_kg":null,"dimensions":null,"purposes":["comms"],"wikipedia_slug":null,"has_3d_model":false,"image_url":null,"decayed_at":null,"tle_current":{"epoch":"2026-05-25T02:06:55.833408Z","epoch_age_seconds":67472,"freshness":"FRESH","line1":"1 53162U 22083AG  26145.08814622  .00001248  00000+0  96458-4 0  9991","line2":"2 53162  53.2129 181.1653 0000946 103.9236 256.1861 15.08840828212894","mean_motion":15.08840828,"eccentricity":9.46e-5,"inclination_deg":53.2129,"raan_deg":181.1653,"arg_perigee_deg":103.9236,"mean_anomaly_deg":256.1861,"bstar":9.6458e-5,"rev_number":21289,"period_min":95.437502304915,"perigee_km":539.08642685513,"apogee_km":540.39528934588,"semimajor_km":6917.8778581005,"source":"CELESTRAK","updated_at":"2026-05-25T13:38:17.321769Z"}}}